Weather History for KRWI - October, 2012

Change the Weather History Date:

Wednesday, October 3, 2012

  Actual Average Record
Temperature  
Mean Temperature 78 °F -  
Max Temperature 86 °F 78 °F 93 °F (1968)
Min Temperature 73 °F 53 °F 35 °F (1974)
Cooling Degree Days 14    
Growing Degree Days 28 (Base 50)    
Moisture  
Dew Point 74 °F    
Average Humidity 89    
Maximum Humidity 100    
Minimum Humidity 67    
Precipitation  
Precipitation 0.07 in - - ()
Sea Level Pressure  
Sea Level Pressure 30.07 in    
Wind  
Wind Speed 4 mph (South)    
Max Wind Speed 8 mph    
Max Gust Speed -    
Visibility 7 miles    
Events Fog , Rain    
Averages and records for this station are not official NWS values.
T = Trace of Precipitation, MM = Missing Value Source: NWS Daily Summary

Daily Weather History Graph

Daily Weather History Graph

Search for Another Location

Airport or City:

Trip Planner

Search our weather history database for the weather conditions in past years. The results will help you decide how hot, cold, wet, or windy it might be!

Date:

Astronomy

Oct. 03, 2012 Rise Set
Actual Time 7:08 AM EDT 6:51 PM EDT
Civil Twilight 6:43 AM EDT 7:17 PM EDT
Nautical Twilight 6:13 AM EDT 7:46 PM EDT
Astronomical Twilight 5:43 AM EDT 8:16 PM EDT
Moon 8:50 PM EDT (10/3) 10:22 AM EDT (10/3)
Length of Visible Light 12h 34m
Length of Day
11h 43m
Waning Gibbous, 89% of the Moon is Illuminated
Oct 3
Waning Gibbous
Oct 8
Last Quarter
Oct 15
New
Oct 21
First Quarter
Oct 29
Full

Hourly Weather History & Observations

Time (EDT) Temp. Heat Index Dew Point Humidity Pressure Visibility Wind Dir Wind Speed Gust Speed Precip Events Conditions
12:53 AM 77.0 °F - 73.9 °F 90% 29.99 in 10.0 mi South 6.9 mph - N/A   Overcast
1:53 AM 77.0 °F - 73.9 °F 90% 30.01 in 10.0 mi South 4.6 mph - N/A   Overcast
2:53 AM 75.9 °F - 73.9 °F 94% 30.01 in 10.0 mi South 4.6 mph - N/A   Overcast
3:18 AM 77.0 °F - 73.4 °F 89% 30.01 in 10.0 mi South 5.8 mph - N/A   Overcast
3:28 AM 75.2 °F - 73.4 °F 94% 30.01 in 8.0 mi South 4.6 mph - 0.00 in Rain Light Rain
3:35 AM 75.2 °F - 73.4 °F 94% 30.01 in 9.0 mi South 3.5 mph - 0.00 in   Overcast
3:50 AM 75.2 °F - 73.4 °F 94% 30.01 in 8.0 mi Calm Calm - 0.00 in Rain Light Rain
3:53 AM 75.9 °F - 73.9 °F 94% 30.01 in 8.0 mi South 4.6 mph - 0.00 in Rain Light Rain
4:02 AM 75.2 °F - 73.4 °F 94% 30.02 in 8.0 mi South 3.5 mph - 0.00 in Rain Light Rain
4:53 AM 75.9 °F - 73.0 °F 91% 30.02 in 8.0 mi Calm Calm - 0.00 in   Mostly Cloudy
5:13 AM 75.2 °F - 73.4 °F 94% 30.03 in 3.0 mi SSE 3.5 mph - 0.06 in Rain Rain
5:35 AM 75.2 °F - 73.4 °F 94% 30.04 in 7.0 mi South 4.6 mph - 0.06 in   Mostly Cloudy
5:53 AM 75.0 °F - 73.0 °F 94% 30.04 in 7.0 mi South 3.5 mph - 0.06 in   Partly Cloudy
6:53 AM 75.0 °F - 73.0 °F 94% 30.05 in 4.0 mi Calm Calm - N/A   Clear
7:01 AM 75.2 °F - 73.4 °F 94% 30.05 in 2.0 mi Calm Calm - N/A   Clear
7:21 AM 73.4 °F - 73.4 °F 100% 30.06 in 0.2 mi Calm Calm - N/A Fog Fog
7:43 AM 73.4 °F - 73.4 °F 100% 30.07 in 1.0 mi Calm Calm - N/A   Mist
7:48 AM 73.4 °F - 71.6 °F 94% 30.07 in 2.0 mi Calm Calm - N/A   Scattered Clouds
7:53 AM 73.9 °F - 73.0 °F 97% 30.07 in 1.8 mi Calm Calm - N/A   Scattered Clouds
8:00 AM 73.4 °F - 73.4 °F 100% 30.08 in 2.5 mi Calm Calm - N/A   Partly Cloudy
8:11 AM 75.2 °F - 73.4 °F 94% 30.08 in 3.0 mi Calm Calm - N/A   Mostly Cloudy
8:18 AM 75.2 °F - 73.4 °F 94% 30.08 in 4.0 mi Calm Calm - N/A   Mostly Cloudy
8:53 AM 77.0 °F - 75.0 °F 94% 30.09 in 4.0 mi South 3.5 mph - N/A   Mostly Cloudy
9:14 AM 77.0 °F - 75.2 °F 94% 30.10 in 7.0 mi South 4.6 mph - N/A   Mostly Cloudy
9:53 AM 80.1 °F 85.1 °F 75.0 °F 85% 30.10 in 10.0 mi SSW 8.1 mph - N/A   Overcast
10:39 AM 80.6 °F 85.4 °F 73.4 °F 79% 30.11 in 10.0 mi SSW 6.9 mph - 0.01 in   Scattered Clouds
10:53 AM 81.0 °F 86.7 °F 75.0 °F 82% 30.11 in 10.0 mi South 5.8 mph - 0.01 in   Partly Cloudy
11:53 AM 82.0 °F 88.6 °F 75.0 °F 79% 30.11 in 10.0 mi South 4.6 mph - N/A   Mostly Cloudy
12:53 PM 82.0 °F 87.9 °F 73.9 °F 76% 30.10 in 10.0 mi Variable 3.5 mph - N/A   Scattered Clouds
1:53 PM 84.0 °F 90.2 °F 73.0 °F 69% 30.09 in 10.0 mi South 5.8 mph - N/A   Clear
2:53 PM 84.0 °F 91.2 °F 73.9 °F 72% 30.07 in 10.0 mi South 6.9 mph - N/A   Partly Cloudy
3:53 PM 84.0 °F 91.2 °F 73.9 °F 72% 30.07 in 10.0 mi South 5.8 mph - N/A   Mostly Cloudy
4:06 PM 84.2 °F 90.9 °F 73.4 °F 70% 30.07 in 10.0 mi SSW 4.6 mph - N/A   Scattered Clouds
4:53 PM 84.9 °F 91.4 °F 73.0 °F 67% 30.07 in 10.0 mi South 4.6 mph - N/A   Clear
5:53 PM 82.0 °F 88.6 °F 75.0 °F 79% 30.09 in 10.0 mi Calm Calm - N/A   Partly Cloudy
6:53 PM 80.1 °F 85.1 °F 75.0 °F 85% 30.10 in 10.0 mi Calm Calm - N/A   Clear
7:53 PM 77.0 °F - 75.0 °F 94% 30.11 in 10.0 mi South 3.5 mph - N/A   Clear
8:53 PM 77.0 °F - 75.0 °F 94% 30.12 in 9.0 mi SSE 3.5 mph - N/A   Clear
9:53 PM 75.9 °F - 73.9 °F 94% 30.14 in 7.0 mi South 4.6 mph - N/A   Clear
10:53 PM 75.9 °F - 73.9 °F 94% 30.15 in 7.0 mi South 4.6 mph - N/A   Mostly Cloudy
11:53 PM 75.9 °F - 73.0 °F 91% 30.16 in 9.0 mi South 4.6 mph - N/A   Overcast